Location: Madden
(51.3728°N, 114.3297°W)
Time: 19:54:22
(UTC+00:00)

CUTE-I - Pass Details

Date: 15 December 2023
Orbit: 807 x 822 km, 98.7° (Epoch: 21 February)

Event Time Altitude Azimuth Distance (km) Brightness Sun altitude
Rises 13:17:15 0° 21° (NNE) 3,370 ? -20.3°
Reaches altitude 10° 13:19:50 10° 31° (NNE) 2,433 ? -19.9°
Maximum altitude 13:24:42 34° 95° (E) 1,339 ? -19.1°
Drops below altitude 10° 13:29:32 10° 160° (SSE) 2,418 ? -18.4°
Sets 13:32:06 0° 169° (S) 3,346 ? -18.0°
